Regional Weather Roundup
Issued by NWS

Home | Current Version | Previous Version | Graphics & Text | Print | Product List | Glossary Off
Versions: 1 2 3 4 5 6 7 8 9 10 11 12 13 14 15 16 17 18 19 20 21 22 23 24 25 26 27 28 29 30 31 32 33 34 35 36 37 38 39 40 41 42 43 44 45 46 47 48 49 50

000
ASUS43 KFSD 281810
RWRSD

WEATHER ROUNDUP FOR SOUTH DAKOTA
NATIONAL WEATHER SERVICE SIOUX FALLS SD
100 PM CDT SAT MAY 28 2016

NOTE: "FAIR" INDICATES FEW OR NO CLOUDS BELOW 12,000 FEET WITH NO
SIGNIFICANT WEATHER AND/OR OBSTRUCTIONS TO VISIBILITY.


SDZ001>005-009-010-012>017-281900-
NORTHWEST AND NORTH CENTRAL SOUTH DAKOTA

CITY           SKY/WX    TMP DP  RH WIND       PRES   REMARKS
BUFFALO          N/A     69  47  45 VRB3      29.84F
FAITH            N/A     71  46  40 CALM      29.88S
MOBRIDGE       CLOUDY    72  50  45 N6        29.84S
$$

SDZ012>016-024>037-041>051-057-063-072>074-281900-
SOUTHWEST AND SOUTH CENTRAL SOUTH DAKOTA

CITY           SKY/WX    TMP DP  RH WIND       PRES   REMARKS
RAPID CTY ARPT MOSUNNY   70  47  43 N6        29.91S
PIERRE         PTSUNNY   70  54  56 VRB5      29.84S
CUSTER         CLOUDY    61  41  47 SW10      29.98S
ELLSWORTH AFB  PTSUNNY   68  46  45 CALM      29.91S
PHILIP         CLOUDY    70  50  49 NW3       29.88S
PINE RIDGE     SUNNY     71  43  36 VRB7      29.93R
WINNER         FAIR      66  55  67 NW13      29.86S
$$

SDZ004>011-016>023-039-040-281900-
NORTHEAST SOUTH DAKOTA

CITY           SKY/WX    TMP DP  RH WIND       PRES   REMARKS
ABERDEEN       CLOUDY    65  58  78 NE8       29.83S
WATERTOWN      LGT RAIN  63  56  78 NE8       29.81S
BROOKINGS      RAIN      60  58  92 N7        29.80S
SISSETON         N/A     69  54  58 VRB5      29.80R
$$

SDZ017-020-022-023-036>040-048>070-281900-
SOUTHEAST SOUTH DAKOTA

CITY           SKY/WX    TMP DP  RH WIND       PRES   REMARKS
SIOUX FALLS    CLOUDY    68  61  78 N14       29.76F
HURON          LGT RAIN  63  61  93 N7        29.80S
CHAMBERLAIN    CLOUDY    66  59  77 N10       29.84S
MITCHELL       LGT RAIN  63  61  93 NW12      29.80S
YANKTON        CLOUDY    66  59  77 NW18      29.74F
$$

ABBREVIATIONS USED IN REMARKS
   TC - TEMPERATURE IN CELSIUS
  WCI - WIND CHILL INDEX
   HX - HEAT INDEX
  VSB - VISIBILITY





USA.gov is the U.S. government's official web portal to all federal, state and local government web resources and services.